EW9023 Weather Reports


Display with metric or nautical units.
time (UTC)temp
F
wind
direction
speed
MPH
gust
MPH
rain 1hr
in
rain 24hr
in
rain mn
in
humidity
%
barometer
mb
20200918194317 101 90 2.0 3.0 0.00 0.00 0.00 36 1007.8
20200918193319 100 112 6.0 8.0 0.00 0.00 0.00 38 1008.0
20200918192317 100 157 2.0 7.0 0.00 0.00 0.00 38 1008.2
20200918191317 99 247 1.0 3.0 0.00 0.00 0.00 39 1008.4
20200918190316 100 157 5.0 6.0 0.00 0.00 0.00 37 1008.6
20200918185319 98 202 2.0 4.0 0.00 0.00 0.00 42 1008.8
20200918184319 98 337 2.0 3.0 0.00 0.00 0.00 41 1008.9
20200918183319 97 67 2.0 4.0 0.00 0.00 0.00 45 1009.1
20200918182320 98 337 1.0 2.0 0.00 0.00 0.00 46 1009.3
20200918181317 97 0.0 1.0 0.00 0.00 0.00 45 1009.4
20200918180325 96 337 3.0 4.0 0.00 0.00 0.00 45 1009.5
20200918175325 96 0 3.0 5.0 0.00 0.00 0.00 48 1009.6
20200918174317 95 0 2.0 3.0 0.00 0.00 0.00 49 1009.8
20200918173320 94 0 1.0 2.0 0.00 0.00 0.00 51 1009.9
20200918172318 93 45 4.0 6.0 0.00 0.00 0.00 56 1010.0
20200918171318 92 67 1.0 2.0 0.00 0.00 0.00 55 1010.1
20200918170318 92 22 2.0 4.0 0.00 0.00 0.00 59 1010.1
20200918165317 91 0 2.0 4.0 0.00 0.00 0.00 59 1010.2
20200918164316 90 45 3.0 5.0 0.00 0.00 0.00 63 1010.3
20200918163318 90 22 3.0 5.0 0.00 0.00 0.00 64 1010.4
20200918162320 89 0 6.0 9.0 0.00 0.00 0.00 67 1010.4
20200918161317 88 45 4.0 6.0 0.00 0.00 0.00 69 1010.5
20200918160319 88 22 4.0 6.0 0.00 0.00 0.00 72 1010.4
20200918155356 87 67 5.0 9.0 0.00 0.00 0.00 74 1010.4
20200918154321 86 22 3.0 8.0 0.00 0.00 0.00 75 1010.4
20200918153319 85 22 5.0 6.0 0.00 0.00 0.00 78 1010.3
20200918152319 85 45 5.0 7.0 0.00 0.00 0.00 79 1010.3
20200918151321 84 22 5.0 6.0 0.00 0.00 0.00 80 1010.2
20200918150323 83 22 5.0 6.0 0.00 0.00 0.00 80 1010.2
20200918145316 82 0 4.0 7.0 0.00 0.00 0.00 81 1010.2
20200918144317 81 0 5.0 7.0 0.00 0.00 0.00 82 1010.2
20200918143320 80 22 5.0 7.0 0.00 0.00 0.00 85 1010.1
20200918142317 79 22 4.0 5.0 0.00 0.00 0.00 86 1010.1
20200918141323 78 22 3.0 4.0 0.00 0.00 0.00 88 1010.0
20200918140318 78 22 3.0 4.0 0.00 0.00 0.00 88 1009.9
20200918135321 77 22 4.0 5.0 0.00 0.00 0.00 89 1009.8
20200918134317 76 90 3.0 4.0 0.00 0.00 0.00 90 1009.6
20200918133317 76 112 1.0 2.0 0.00 0.00 0.00 89 1009.6
20200918132319 75 112 1.0 2.0 0.00 0.00 0.00 89 1009.4
20200918131317 75 0.0 0.0 0.00 0.00 0.00 90 1009.2
20200918130320 76 0.0 0.0 0.00 0.00 0.00 90 1009.1
20200918125322 76 112 1.0 1.0 0.00 0.00 0.00 90 1009.0
20200918124316 76 112 1.0 1.0 0.00 0.00 0.00 89 1008.9
20200918123318 76 0.0 0.0 0.00 0.00 0.00 89 1008.7
20200918122325 76 0.0 0.0 0.00 0.00 0.00 89 1008.6
20200918121319 76 0.0 0.0 0.00 0.00 0.00 89 1008.4
20200918120316 76 0.0 0.0 0.00 0.00 0.00 89 1008.4
20200918115334 76 0.0 0.0 0.00 0.00 0.00 89 1008.4
20200918114318 77 112 1.0 1.0 0.00 0.00 0.00 90 1008.2
20200918113318 77 0.0 0.0 0.00 0.00 0.00 90 1008.2
20200918112316 76 0.0 0.0 0.00 0.00 0.00 91 1008.2
20200918111324 76 0.0 0.0 0.00 0.00 0.00 91 1008.2
20200918110317 76 112 1.0 1.0 0.00 0.00 0.00 90 1008.2
20200918105321 76 0.0 0.0 0.00 0.00 0.00 90 1008.1
20200918104321 76 0.0 0.0 0.00 0.00 0.00 89 1008.1
20200918103316 77 0.0 0.0 0.00 0.00 0.00 90 1008.1
20200918102317 77 0.0 0.0 0.00 0.00 0.00 90 1008.0
20200918101322 77 112 1.0 1.0 0.00 0.00 0.00 90 1008.0
20200918100319 78 157 2.0 2.0 0.00 0.00 0.00 90 1008.0
20200918095317 78 0.0 1.0 0.00 0.00 0.00 90 1008.0
20200918094318 77 157 2.0 2.0 0.00 0.00 0.00 90 1008.0
20200918093332 77 157 3.0 4.0 0.00 0.00 0.00 91 1008.1
20200918092321 77 135 4.0 4.0 0.00 0.00 0.00 92 1008.1
20200918091316 76 22 1.0 2.0 0.00 0.00 0.00 91 1007.9
20200918090317 76 0.0 0.0 0.00 0.00 0.00 90 1007.9
20200918085331 76 0.0 0.0 0.00 0.00 0.00 89 1007.8
20200918084316 76 0.0 0.0 0.00 0.00 0.00 90 1007.8
20200918083318 76 0.0 0.0 0.00 0.00 0.00 89 1007.8
20200918082325 76 0.0 0.0 0.00 0.00 0.00 88 1007.8
20200918081342 76 0.0 0.0 0.00 0.00 0.00 88 1007.9
20200918080316 76 22 1.0 2.0 0.00 0.00 0.00 89 1007.9
20200918074317 76 22 1.0 1.0 0.00 0.00 0.00 88 1007.8
20200918073325 77 22 1.0 1.0 0.00 0.00 0.00 88 1007.6
20200918072316 77 0.0 0.0 0.00 0.00 0.00 88 1007.7
20200918071317 77 0.0 1.0 0.00 0.00 0.00 87 1007.8
20200918070316 77 0.0 0.0 0.00 0.00 0.00 86 1007.9
20200918065317 78 0.0 0.0 0.00 0.00 0.00 86 1007.9
20200918064316 78 0.0 0.0 0.00 0.00 0.00 85 1007.8
20200918063318 79 22 2.0 3.0 0.00 0.00 0.00 85 1008.0
20200918062323 79 270 3.0 3.0 0.00 0.00 0.00 85 1007.8
20200918061316 79 270 3.0 3.0 0.00 0.00 0.00 83 1008.2
20200918060317 79 202 2.0 2.0 0.00 0.00 0.00 83 1008.1
20200918055326 80 0.0 0.0 0.00 0.00 0.00 82 1008.0
20200918054316 81 0.0 0.0 0.00 0.00 0.00 82 1007.9
20200918053320 81 0.0 0.0 0.00 0.00 0.00 82 1008.0
20200918052316 81 0.0 0.0 0.00 0.00 0.00 83 1008.1
20200918051316 81 0.0 0.0 0.00 0.00 0.00 83 1008.1
20200918050316 81 0.0 0.0 0.00 0.00 0.00 83 1008.0
20200918045321 82 202 2.0 2.0 0.00 0.00 0.00 82 1008.0
20200918044317 82 0.0 1.0 0.00 0.00 0.00 81 1008.0
20200918043319 82 202 2.0 3.0 0.00 0.00 0.00 80 1008.0
20200918042321 83 0.0 0.0 0.00 0.00 0.00 79 1007.9
20200918041319 83 0.0 0.0 0.00 0.00 0.00 78 1008.0
20200918040315 83 0.0 0.0 0.00 0.00 0.00 78 1008.0
20200918035319 83 0.0 0.0 0.00 0.00 0.00 78 1007.7
20200918034320 84 0.0 0.0 0.00 0.00 0.00 78 1007.7
20200918033317 84 202 1.0 1.0 0.00 0.00 0.00 77 1007.7
20200918032318 84 0.0 1.0 0.00 0.00 0.00 77 1007.6
20200918031316 84 202 2.0 3.0 0.00 0.00 0.00 77 1007.5
20200918030316 85 202 2.0 2.0 0.00 0.00 0.00 76 1007.4
20200918025316 85 0.0 0.0 0.00 0.00 0.00 75 1007.3
20200918024316 86 202 3.0 3.0 0.00 0.00 0.00 75 1007.2
20200918023327 86 225 2.0 3.0 0.00 0.00 0.00 75 1007.0
20200918022318 86 225 4.0 6.0 0.00 0.00 0.00 74 1006.8
20200918021316 86 225 2.0 5.0 0.00 0.00 0.00 73 1006.8
20200918020317 86 202 3.0 4.0 0.00 0.00 0.00 72 1006.7
20200918015318 87 225 3.0 5.0 0.00 0.00 0.00 71 1006.6
20200918014315 87 180 5.0 6.0 0.00 0.00 0.00 70 1006.5
20200918013325 88 180 6.0 9.0 0.00 0.00 0.00 68 1006.4
20200918012317 88 180 6.0 9.0 0.00 0.00 0.00 67 1006.3
20200918011317 89 180 7.0 11.0 0.00 0.00 0.00 65 1006.2
20200918010326 89 202 6.0 8.0 0.00 0.00 0.00 64 1006.1
20200918005321 90 180 8.0 12.0 0.00 0.00 0.00 64 1005.9
20200918004318 90 202 9.0 11.0 0.00 0.00 0.00 64 1005.9
20200918003325 90 202 8.0 11.0 0.00 0.00 0.00 65 1005.9
20200918002333 91 180 8.0 11.0 0.00 0.00 0.00 65 1006.0
20200918001317 91 202 10.0 12.0 0.00 0.00 0.00 65 1005.9
20200918000320 92 202 11.0 15.0 0.00 0.00 0.00 65 1005.9
20200917235446 92 180 12.0 16.0 0.00 0.00 0.00 63 1005.8
20200917234319 92 202 10.0 13.0 0.00 0.00 0.00 62 1005.9
20200917233319 93 202 10.0 15.0 0.00 0.00 0.00 61 1006.0
20200917232318 93 202 12.0 14.0 0.00 0.00 0.00 60 1006.1
20200917231319 94 202 12.0 16.0 0.00 0.00 0.00 59 1006.2
20200917230318 94 202 8.0 11.0 0.00 0.00 0.00 58 1006.3
20200917225318 95 202 11.0 15.0 0.00 0.00 0.00 56 1006.5
20200917224321 95 225 11.0 14.0 0.00 0.00 0.00 55 1006.4
20200917223332 95 225 11.0 15.0 0.00 0.00 0.00 53 1006.5
20200917222325 96 247 11.0 16.0 0.00 0.00 0.00 53 1006.7
20200917221318 96 225 8.0 13.0 0.00 0.00 0.00 54 1006.8
20200917220331 96 225 8.0 12.0 0.00 0.00 0.00 54 1006.9
20200917215320 96 225 13.0 17.0 0.00 0.00 0.00 54 1007.0
20200917214318 96 202 9.0 12.0 0.00 0.00 0.00 54 1007.0
20200917213321 97 202 10.0 18.0 0.00 0.00 0.00 54 1007.1
20200917212319 97 225 10.0 15.0 0.00 0.00 0.00 53 1007.2
20200917211319 98 202 11.0 15.0 0.00 0.00 0.00 51 1007.4
20200917210320 99 202 8.0 11.0 0.00 0.00 0.00 50 1007.4
20200917205318 99 225 7.0 11.0 0.00 0.00 0.00 50 1007.5
20200917204336 99 180 8.0 11.0 0.00 0.00 0.00 51 1007.6
20200917203319 99 202 6.0 9.0 0.00 0.00 0.00 51 1007.7
20200917202319 99 202 10.0 13.0 0.00 0.00 0.00 50 1007.8
20200917201320 100 202 10.0 13.0 0.00 0.00 0.00 47 1007.9
20200917200317 100 225 8.0 12.0 0.00 0.00 0.00 46 1008.1
20200917195334 101 67 2.0 5.0 0.00 0.00 0.00 36 1008.3